Flag for Switzerland Weather past 2 weeks in Sion, Valais, Switzerland

Now
68 °F

Mild.


Feels Like: 68 °F
Forecast: 45 / 76 °F
Wind: 7 mph from Northwest

Location: Sion

Current Time: Aug 20, 2014 at 8:48:25 PM

Latest Report: Aug 20, 2014 at 7:00 PM


Visibility: N/A

Pressure: 29.90 "Hg

Humidity: 46%

Dew point: 46 °F

Location of SionLocation

Historic Weather in Sion — Graph

°F

Sion temperature yesterday

Maximum temperature yesterday: 74 °F (at 5:00 PM)
Minimum temperature yesterday: 54 °F (at 3:00 AM)
Average temperature yesterday: 64 °F

Past Weeks' High & Low Weather Summary

 TemperatureHumidityPressure
High85 °F (Aug 10, 6:00 PM)97% (Aug 11, 7:00 AM)30.22 "Hg (Aug 11, 7:00 AM)
Low47 °F (Aug 17, 7:00 AM)31% (Aug 18, 4:00 PM)29.70 "Hg (Aug 13, 4:00 PM)
Average65 °F70%29.95 "Hg
* Reported Aug 5 7:00 PM — Aug 20 7:00 PM, Sion, Weather by CustomWeather, © 2014

Note: Actual official high and low records may vary slightly from our data, if they occured in-between our weather recording intervals... More about our weather records

Advertising

Sion weather history for previous 24 hours

 ConditionsComfort  
Time TempWeatherWind HumidityBarometerVisibility
7:00 PM
Aug 20
68 °FMild.7 mph46%29.90 "HgN/A
6:00 PM66 °FMild.3 mph50%29.92 "HgN/A
5:00 PM69 °FOvercast.17 mph41%29.91 "Hg14 mi
4:00 PM76 °FMild.14 mph38%29.87 "HgN/A
3:00 PM69 °FMild.15 mph46%29.89 "HgN/A
2:00 PM72 °FPartly sunny.10 mph43%29.87 "Hg19 mi
1:00 PM71 °FMild.10 mph43%29.90 "HgN/A
12:00 PM69 °FMild.7 mph52%29.93 "HgN/A
11:00 AM65 °FMild.7 mph58%29.96 "HgN/A
10:00 AM64 °FMild.3 mph64%29.97 "HgN/A
9:00 AM60 °FCool.1 mph74%29.99 "HgN/A
8:00 AM56 °FPartly sunny.2 mph90%30.00 "Hg19 mi
7:00 AM55 °FCool.1 mph87%30.01 "HgN/A
6:00 AM56 °FCool.1 mph86%30.00 "HgN/A
5:00 AM58 °FCool.1 mph82%30.00 "HgN/A
4:00 AM58 °FCool.1 mph81%29.99 "HgN/A
3:00 AM58 °FCool.1 mph84%29.98 "HgN/A
2:00 AM58 °FPassing clouds.1 mph79%29.98 "Hg12 mi
1:00 AM61 °FCool.1 mph71%29.97 "HgN/A
12:00 AM63 °FMild.2 mph65%29.96 "HgN/A
11:00 PM
Aug 19
63 °FPassing clouds.3 mph64%29.94 "Hg16 mi
10:00 PM65 °FMild.7 mph57%29.91 "HgN/A
9:00 PM67 °FMild.14 mph55%29.87 "HgN/A
8:00 PM67 °FScattered clouds.18 mph54%29.85 "Hg12 mi
Weather by CustomWeather, © 2014

See weather overviewHow to use our weather pages